Time,TemperatureF,DewpointF,PressureIn,WindDirection,WindDirectionDegrees,WindSpeedMPH,WindSpeedGustMPH,Humidity,HourlyPrecipIn,Conditions,Clouds,dailyrainin,SolarRadiationWatts/m^2,SoftwareType,DateUTC
2013-05-23 00:01:00,41.8,33.4,30.02,SW,214,1.2,0.0,72,0.00,CLR,OVC,0.00,0.0,WeatherDisplay:10.37,2013-05-22 23:01:00,
2013-05-23 00:06:00,41.6,33.6,30.02,WNW,284,3.0,3.0,73,0.00,SCT,OVC,0.00,0.0,WeatherDisplay:10.37,2013-05-22 23:06:00,
2013-05-23 00:11:00,41.6,33.6,30.02,North,1,1.2,0.0,73,0.00,SCT,OVC,0.00,0.0,WeatherDisplay:10.37,2013-05-22 23:11:00,
2013-05-23 00:16:00,41.5,33.5,30.02,NNW,333,0.0,0.5,73,0.00,SCT,OVC,0.00,0.0,WeatherDisplay:10.37,2013-05-22 23:16:00,
2013-05-23 00:21:00,41.5,33.5,30.03,WNW,294,1.2,1.2,73,0.00,SCT,OVC,0.00,0.0,WeatherDisplay:10.37,2013-05-22 23:21:00,
2013-05-23 00:26:00,41.6,33.6,30.02,NW,316,1.2,0.0,73,0.00,SCT,OVC,0.00,0.0,WeatherDisplay:10.37,2013-05-22 23:26:00,
2013-05-23 00:31:00,41.5,33.5,30.02,WNW,297,3.5,3.5,73,0.00,SCT,OVC,0.00,0.0,WeatherDisplay:10.37,2013-05-22 23:31:00,
2013-05-23 00:36:00,41.9,33.2,30.01,NW,322,3.0,3.0,71,0.00,SCT,OVC,0.00,0.0,WeatherDisplay:10.37,2013-05-22 23:36:00,
2013-05-23 00:41:00,42.0,33.3,30.02,NW,316,2.3,2.3,71,0.00,SCT,OVC,0.00,0.0,WeatherDisplay:10.37,2013-05-22 23:41:00,
2013-05-23 00:46:00,42.1,33.4,30.02,NW,319,2.3,2.3,71,0.00,SCT,OVC,0.00,0.0,WeatherDisplay:10.37,2013-05-22 23:46:00,
2013-05-23 00:51:00,42.0,33.3,30.02,NNW,328,3.5,3.5,71,0.00,SCT,OVC,0.00,0.0,WeatherDisplay:10.37,2013-05-22 23:51:00,
2013-05-23 00:56:00,42.0,33.3,30.02,NNW,328,1.2,0.0,71,0.00,SCT,OVC,0.00,0.0,WeatherDisplay:10.37,2013-05-22 23:56:00,
2013-05-23 01:01:00,41.9,33.2,30.01,NW,326,2.0,2.0,71,0.00,FEW,OVC,0.00,0.0,WeatherDisplay:10.37,2013-05-23 00:01:00,
2013-05-23 01:06:00,41.7,33.3,30.01,NW,322,2.3,2.3,72,0.00,FEW,OVC,0.00,0.0,WeatherDisplay:10.37,2013-05-23 00:06:00,
2013-05-23 01:11:00,41.7,33.0,30.01,NW,322,2.3,2.3,71,0.00,FEW,OVC,0.00,0.0,WeatherDisplay:10.37,2013-05-23 00:11:00,
2013-05-23 01:16:00,41.7,33.0,30.01,NW,321,2.0,2.0,71,0.00,FEW,OVC,0.00,0.0,WeatherDisplay:10.37,2013-05-23 00:16:00,
2013-05-23 01:21:00,41.5,32.8,30.01,NNW,328,1.2,1.2,71,0.00,FEW,OVC,0.00,0.0,WeatherDisplay:10.37,2013-05-23 00:21:00,
2013-05-23 01:26:00,41.5,32.8,30.01,NNW,337,1.2,1.2,71,0.00,FEW,OVC,0.00,0.0,WeatherDisplay:10.37,2013-05-23 00:26:00,
2013-05-23 01:31:00,41.4,32.7,30.01,NNW,345,2.3,2.3,71,0.00,FEW,OVC,0.00,0.0,WeatherDisplay:10.37,2013-05-23 00:31:00,
2013-05-23 01:36:00,41.5,32.4,30.00,NNW,340,2.3,2.3,70,0.00,FEW,OVC,0.00,0.0,WeatherDisplay:10.37,2013-05-23 00:36:00,
2013-05-23 01:41:00,41.6,32.2,30.01,NW,323,3.5,3.5,69,0.00,FEW,OVC,0.00,0.0,WeatherDisplay:10.37,2013-05-23 00:41:00,
2013-05-23 01:46:00,41.6,31.8,30.00,NW,308,3.5,3.5,68,0.00,FEW,OVC,0.00,0.0,WeatherDisplay:10.37,2013-05-23 00:46:00,
2013-05-23 01:51:00,41.6,31.8,30.00,NNW,328,2.3,2.3,68,0.00,FEW,OVC,0.00,0.0,WeatherDisplay:10.37,2013-05-23 00:51:00,
2013-05-23 01:56:00,41.3,31.9,30.01,NNW,328,1.2,1.2,69,0.00,FEW,OVC,0.00,0.0,WeatherDisplay:10.37,2013-05-23 00:56:00,
2013-05-23 02:01:00,41.1,31.3,30.01,NW,324,3.5,3.5,68,0.00,FEW,OVC,0.00,0.0,WeatherDisplay:10.37,2013-05-23 01:01:00,
2013-05-23 02:06:00,41.3,31.2,30.00,NNW,342,5.8,5.8,67,0.00,FEW,OVC,0.00,0.0,WeatherDisplay:10.37,2013-05-23 01:06:00,
2013-05-23 02:11:00,41.6,31.4,30.00,NW,319,3.5,3.5,67,0.00,FEW,OVC,0.00,0.0,WeatherDisplay:10.37,2013-05-23 01:11:00,
2013-05-23 02:16:00,41.1,31.7,30.00,NNW,335,2.3,2.3,69,0.00,FEW,OVC,0.00,0.0,WeatherDisplay:10.37,2013-05-23 01:16:00,
2013-05-23 02:21:00,40.6,31.2,30.00,NNW,335,2.3,2.3,69,0.00,FEW,OVC,0.00,0.0,WeatherDisplay:10.37,2013-05-23 01:21:00,
2013-05-23 02:26:00,40.4,31.4,30.00,NW,314,3.5,3.5,70,0.00,FEW,OVC,0.00,0.0,WeatherDisplay:10.37,2013-05-23 01:26:00,
2013-05-23 02:31:00,40.1,31.4,30.00,NNW,328,3.5,3.5,71,0.00,CLR,OVC,0.00,0.0,WeatherDisplay:10.37,2013-05-23 01:31:00,
2013-05-23 02:36:00,39.9,31.6,30.00,NW,319,3.5,3.5,72,0.00,CLR,OVC,0.00,0.0,WeatherDisplay:10.37,2013-05-23 01:36:00,
2013-05-23 02:41:00,39.7,31.4,30.00,NW,316,3.5,3.5,72,0.00,CLR,OVC,0.00,0.0,WeatherDisplay:10.37,2013-05-23 01:41:00,
2013-05-23 02:46:00,39.8,31.2,30.00,NW,309,2.3,2.3,71,0.00,CLR,OVC,0.00,0.0,WeatherDisplay:10.37,2013-05-23 01:46:00,
2013-05-23 02:51:00,39.8,31.2,30.00,NW,326,2.3,2.3,71,0.00,CLR,OVC,0.00,0.0,WeatherDisplay:10.37,2013-05-23 01:51:00,
2013-05-23 02:56:00,40.2,31.2,30.00,NW,321,3.5,3.5,70,0.00,CLR,OVC,0.00,0.0,WeatherDisplay:10.37,2013-05-23 01:56:00,
2013-05-23 03:01:00,40.0,31.4,30.00,NW,317,1.2,1.2,71,0.00,CLR,OVC,0.00,0.0,WeatherDisplay:10.37,2013-05-23 02:01:00,
2013-05-23 03:06:00,39.5,31.2,30.00,NNW,332,1.2,1.2,72,0.00,CLR,OVC,0.00,0.0,WeatherDisplay:10.37,2013-05-23 02:06:00,
2013-05-23 03:11:00,39.1,31.2,30.00,NNW,328,1.2,0.0,73,0.00,CLR,OVC,0.00,0.0,WeatherDisplay:10.37,2013-05-23 02:11:00,
2013-05-23 03:16:00,38.7,31.1,30.00,NW,304,0.0,0.0,74,0.00,CLR,OVC,0.00,0.0,WeatherDisplay:10.37,2013-05-23 02:16:00,
2013-05-23 03:21:00,38.7,31.1,29.99,NW,308,1.2,1.2,74,0.00,CLR,OVC,0.00,0.0,WeatherDisplay:10.37,2013-05-23 02:21:00,
2013-05-23 03:26:00,38.7,31.1,29.99,WNW,302,0.0,0.0,74,0.00,CLR,OVC,0.00,0.0,WeatherDisplay:10.37,2013-05-23 02:26:00,
2013-05-23 03:31:00,38.6,31.0,30.00,WNW,302,0.0,0.0,74,0.00,CLR,OVC,0.00,0.0,WeatherDisplay:10.37,2013-05-23 02:31:00,
2013-05-23 03:36:00,38.2,31.0,30.00,WNW,302,0.0,0.0,75,0.00,CLR,OVC,0.00,0.0,WeatherDisplay:10.37,2013-05-23 02:36:00,
2013-05-23 03:41:00,38.0,31.1,30.00,SSE,156,1.2,1.2,76,0.00,CLR,OVC,0.00,0.0,WeatherDisplay:10.37,2013-05-23 02:41:00,
2013-05-23 03:46:00,38.3,31.4,30.00,ESE,115,0.0,0.0,76,0.00,CLR,OVC,0.00,0.0,WeatherDisplay:10.37,2013-05-23 02:46:00,
2013-05-23 03:51:00,38.8,31.9,30.00,West,266,1.2,0.0,76,0.00,CLR,OVC,0.00,0.0,WeatherDisplay:10.37,2013-05-23 02:51:00,
2013-05-23 03:56:00,38.8,31.9,30.00,West,281,1.2,1.2,76,0.00,CLR,OVC,0.00,0.0,WeatherDisplay:10.37,2013-05-23 02:56:00,
2013-05-23 04:01:00,38.9,32.3,29.99,NNW,330,1.2,1.2,77,0.00,SCT,OVC,0.00,0.0,WeatherDisplay:10.37,2013-05-23 03:01:00,
2013-05-23 04:06:00,39.7,32.8,29.99,NW,319,3.5,3.5,76,0.00,SCT,OVC,0.00,0.0,WeatherDisplay:10.37,2013-05-23 03:06:00,
2013-05-23 04:11:00,40.1,32.8,29.99,WNW,299,2.3,2.3,75,0.00,SCT,OVC,0.00,0.0,WeatherDisplay:10.37,2013-05-23 03:11:00,
2013-05-23 04:16:00,40.3,33.0,29.99,WNW,293,1.2,1.2,75,0.00,SCT,OVC,0.00,0.0,WeatherDisplay:10.37,2013-05-23 03:16:00,
2013-05-23 04:21:00,40.2,32.9,29.99,NW,308,0.0,0.0,75,0.00,SCT,OVC,0.00,0.0,WeatherDisplay:10.37,2013-05-23 03:21:00,
2013-05-23 04:26:00,40.0,33.0,29.99,NW,315,1.2,1.2,76,0.00,SCT,OVC,0.00,0.0,WeatherDisplay:10.37,2013-05-23 03:26:00,
2013-05-23 04:31:00,39.9,32.9,29.99,NW,321,2.3,2.3,76,0.00,SCT,OVC,0.00,0.0,WeatherDisplay:10.37,2013-05-23 03:31:00,
2013-05-23 04:36:00,40.1,32.8,29.99,NW,321,2.3,2.3,75,0.00,SCT,OVC,0.00,0.0,WeatherDisplay:10.37,2013-05-23 03:36:00,
2013-05-23 04:41:00,40.5,33.2,29.99,NW,314,2.3,2.3,75,0.00,SCT,OVC,0.00,0.0,WeatherDisplay:10.37,2013-05-23 03:41:00,
2013-05-23 04:47:00,40.8,33.2,29.99,NNW,330,1.2,1.2,74,0.00,BKN,OVC,0.00,0.0,WeatherDisplay:10.37,2013-05-23 03:47:00,
2013-05-23 04:52:00,40.8,33.2,29.99,NW,311,2.3,2.3,74,0.00,BKN,OVC,0.00,0.0,WeatherDisplay:10.37,2013-05-23 03:52:00,
2013-05-23 04:57:00,40.9,33.2,29.98,NW,326,2.3,2.3,74,0.00,BKN,OVC,0.00,0.0,WeatherDisplay:10.37,2013-05-23 03:57:00,
2013-05-23 05:01:00,40.8,33.2,29.98,NW,326,2.3,2.3,74,0.00,BKN,OVC,0.00,0.0,WeatherDisplay:10.37,2013-05-23 04:01:00,
2013-05-23 05:06:00,40.7,33.1,29.98,NW,326,2.3,2.3,74,0.00,BKN,OVC,0.00,0.0,WeatherDisplay:10.37,2013-05-23 04:06:00,
2013-05-23 05:11:00,40.6,33.3,29.98,NNW,338,2.3,2.3,75,0.00,BKN,OVC,0.00,0.0,WeatherDisplay:10.37,2013-05-23 04:11:00,
2013-05-23 05:16:00,40.6,33.3,29.98,NW,324,1.2,1.2,75,0.00,BKN,OVC,0.00,0.0,WeatherDisplay:10.37,2013-05-23 04:16:00,
2013-05-23 05:21:00,40.6,33.3,29.98,WNW,300,2.3,2.3,75,0.00,BKN,OVC,0.00,0.0,WeatherDisplay:10.37,2013-05-23 04:21:00,
2013-05-23 05:26:00,40.7,33.1,29.98,NW,326,3.5,3.5,74,0.00,BKN,OVC,0.00,0.0,WeatherDisplay:10.37,2013-05-23 04:26:00,
2013-05-23 05:31:00,40.9,33.2,29.98,NW,317,3.5,3.5,74,0.00,BKN,OVC,0.00,0.0,WeatherDisplay:10.37,2013-05-23 04:31:00,
2013-05-23 05:36:00,40.9,33.2,29.98,NW,320,3.5,3.5,74,0.00,BKN,OVC,0.00,0.0,WeatherDisplay:10.37,2013-05-23 04:36:00,
2013-05-23 05:41:00,41.0,33.0,29.98,NNW,347,4.6,4.6,73,0.00,BKN,OVC,0.00,0.0,WeatherDisplay:10.37,2013-05-23 04:41:00,
2013-05-23 05:46:00,41.2,32.2,29.98,NNW,338,6.9,6.9,70,0.00,BKN,OVC,0.00,0.0,WeatherDisplay:10.37,2013-05-23 04:46:00,
2013-05-23 05:51:00,41.3,32.2,29.97,NNW,339,6.9,6.9,70,0.00,BKN,OVC,0.00,0.0,WeatherDisplay:10.37,2013-05-23 04:51:00,
2013-05-23 05:56:00,41.4,32.3,29.97,North,359,5.0,5.0,70,0.00,BKN,OVC,0.00,0.0,WeatherDisplay:10.37,2013-05-23 04:56:00,
2013-05-23 06:01:00,41.4,32.7,29.98,NW,312,2.3,2.3,71,0.00,SCT,OVC,0.00,0.0,WeatherDisplay:10.37,2013-05-23 05:01:00,
2013-05-23 06:06:00,41.4,33.0,29.98,NW,307,2.3,2.3,72,0.00,SCT,OVC,0.00,0.0,WeatherDisplay:10.37,2013-05-23 05:06:00,
2013-05-23 06:11:00,41.3,33.3,29.98,NW,312,3.5,3.5,73,0.00,SCT,OVC,0.00,0.0,WeatherDisplay:10.37,2013-05-23 05:11:00,
2013-05-23 06:16:00,41.3,33.6,29.98,NW,319,2.3,2.3,74,0.00,SCT,OVC,0.00,0.0,WeatherDisplay:10.37,2013-05-23 05:16:00,
2013-05-23 06:21:00,41.1,33.8,29.98,NNW,346,3.5,3.5,75,0.00,SCT,OVC,0.00,0.0,WeatherDisplay:10.37,2013-05-23 05:21:00,
2013-05-23 06:26:00,41.0,34.0,29.98,NNW,342,2.3,2.3,76,0.00,SCT,OVC,0.00,0.0,WeatherDisplay:10.37,2013-05-23 05:26:00,
2013-05-23 06:31:00,40.9,34.2,29.98,NW,309,1.2,1.2,77,0.00,FEW,OVC,0.00,0.0,WeatherDisplay:10.37,2013-05-23 05:31:00,
2013-05-23 06:36:00,40.8,34.1,29.98,NW,326,2.3,2.3,77,0.00,FEW,OVC,0.00,0.0,WeatherDisplay:10.37,2013-05-23 05:36:00,
2013-05-23 06:41:00,40.8,34.1,29.98,NNW,344,2.3,2.3,77,0.00,FEW,OVC,0.00,0.0,WeatherDisplay:10.37,2013-05-23 05:41:00,
2013-05-23 06:46:00,40.9,33.9,29.98,NW,323,3.5,3.5,76,0.00,FEW,OVC,0.00,0.0,WeatherDisplay:10.37,2013-05-23 05:46:00,
2013-05-23 06:51:00,41.2,33.5,29.98,NW,326,5.8,5.8,74,0.00,FEW,OVC,0.00,0.0,WeatherDisplay:10.37,2013-05-23 05:51:00,
2013-05-23 06:56:00,41.6,33.2,29.98,NNW,340,4.6,4.6,72,0.00,FEW,OVC,0.00,0.0,WeatherDisplay:10.37,2013-05-23 05:56:00,
2013-05-23 07:01:00,41.9,33.5,29.97,NW,309,3.5,3.5,72,0.00,OVC,,0.00,0.0,WeatherDisplay:10.37,2013-05-23 06:01:00,
2013-05-23 07:06:00,42.0,33.3,29.98,NW,319,4.6,4.6,71,0.00,OVC,,0.00,0.0,WeatherDisplay:10.37,2013-05-23 06:06:00,
2013-05-23 07:11:00,42.1,33.4,29.98,NW,314,4.6,4.6,71,0.00,OVC,,0.00,0.0,WeatherDisplay:10.37,2013-05-23 06:11:00,
2013-05-23 07:16:00,42.2,33.5,29.98,SW,229,6.0,6.0,71,0.00,OVC,,0.00,0.0,WeatherDisplay:10.37,2013-05-23 06:16:00,
2013-05-23 07:21:00,42.4,33.3,29.98,NW,312,4.6,4.6,70,0.00,OVC,,0.00,0.0,WeatherDisplay:10.37,2013-05-23 06:21:00,
2013-05-23 07:26:00,42.5,33.4,29.98,NNW,330,5.8,5.8,70,0.00,OVC,,0.00,0.0,WeatherDisplay:10.37,2013-05-23 06:26:00,
2013-05-23 07:31:00,42.7,33.6,29.98,NE,43,3.5,3.5,70,0.00,SCT,OVC,0.00,0.0,WeatherDisplay:10.37,2013-05-23 06:31:00,
2013-05-23 07:36:00,42.9,34.1,29.98,NW,323,2.3,0.0,71,0.00,SCT,OVC,0.00,0.0,WeatherDisplay:10.37,2013-05-23 06:36:00,
2013-05-23 07:41:00,43.0,33.9,29.99,NW,321,3.5,3.5,70,0.00,SCT,OVC,0.00,0.0,WeatherDisplay:10.37,2013-05-23 06:41:00,
2013-05-23 07:47:00,43.3,34.5,29.98,North,351,3.5,3.5,71,0.00,SCT,OVC,0.00,0.0,WeatherDisplay:10.37,2013-05-23 06:47:00,
2013-05-23 07:52:00,43.6,34.5,29.98,NW,323,2.3,2.3,70,0.00,SCT,OVC,0.00,0.0,WeatherDisplay:10.37,2013-05-23 06:52:00,
2013-05-23 07:57:00,43.7,34.2,29.98,West,264,2.3,2.3,69,0.00,SCT,OVC,0.00,0.0,WeatherDisplay:10.37,2013-05-23 06:57:00,
2013-05-23 08:02:00,43.7,33.5,29.98,WNW,295,4.6,4.6,67,0.00,BKN,OVC,0.00,0.0,WeatherDisplay:10.37,2013-05-23 07:02:00,
2013-05-23 08:07:00,43.8,33.9,29.98,NNW,343,2.3,2.3,68,0.00,BKN,OVC,0.00,0.0,WeatherDisplay:10.37,2013-05-23 07:07:00,
2013-05-23 08:12:00,43.9,34.0,29.99,South,188,3.5,3.5,68,0.00,BKN,OVC,0.00,0.0,WeatherDisplay:10.37,2013-05-23 07:12:00,
2013-05-23 08:17:00,43.9,34.0,29.99,NW,315,3.5,3.5,68,0.00,BKN,OVC,0.00,0.0,WeatherDisplay:10.37,2013-05-23 07:17:00,
2013-05-23 08:22:00,44.0,34.5,29.99,WNW,295,2.3,2.3,69,0.00,BKN,OVC,0.00,0.0,WeatherDisplay:10.37,2013-05-23 07:22:00,
2013-05-23 08:27:00,44.0,34.1,29.99,North,8,3.5,3.5,68,0.00,BKN,OVC,0.00,0.0,WeatherDisplay:10.37,2013-05-23 07:27:00,
2013-05-23 08:32:00,43.9,34.0,29.99,NW,323,3.5,3.5,68,0.00,BKN,OVC,0.00,0.0,WeatherDisplay:10.37,2013-05-23 07:32:00,
2013-05-23 08:37:00,43.9,34.4,29.99,NW,312,3.5,3.5,69,0.00,BKN,OVC,0.00,0.0,WeatherDisplay:10.37,2013-05-23 07:37:00,
2013-05-23 08:42:00,43.9,34.4,29.99,NW,318,3.5,3.5,69,0.00,BKN,OVC,0.00,0.0,WeatherDisplay:10.37,2013-05-23 07:42:00,
2013-05-23 08:47:00,43.9,34.4,29.98,WSW,238,4.6,4.6,69,0.00,BKN,OVC,0.00,0.0,WeatherDisplay:10.37,2013-05-23 07:47:00,
2013-05-23 08:52:00,43.8,34.3,29.99,NNW,329,3.5,3.5,69,0.00,BKN,OVC,0.00,0.0,WeatherDisplay:10.37,2013-05-23 07:52:00,
2013-05-23 08:57:00,43.9,34.4,29.99,NW,326,2.3,2.3,69,0.00,BKN,OVC,0.00,0.0,WeatherDisplay:10.37,2013-05-23 07:57:00,
2013-05-23 09:02:00,44.1,35.6,29.99,NW,326,3.5,3.5,72,0.00,SCT,OVC,0.00,0.0,WeatherDisplay:10.37,2013-05-23 08:02:00,
2013-05-23 09:07:00,44.3,35.5,29.99,NNW,336,6.0,6.0,71,0.00,SCT,OVC,0.00,0.0,WeatherDisplay:10.37,2013-05-23 08:07:00,
2013-05-23 09:12:00,44.4,35.6,29.99,NNW,344,4.6,4.6,71,0.00,SCT,OVC,0.00,0.0,WeatherDisplay:10.37,2013-05-23 08:12:00,
2013-05-23 09:17:00,44.3,35.8,29.99,NW,323,4.6,4.6,72,0.00,SCT,OVC,0.00,0.0,WeatherDisplay:10.37,2013-05-23 08:17:00,
2013-05-23 09:22:00,44.3,36.2,29.99,NW,321,3.5,3.5,73,0.00,SCT,OVC,0.00,0.0,WeatherDisplay:10.37,2013-05-23 08:22:00,
2013-05-23 09:27:00,44.4,35.9,29.99,NW,307,3.5,3.5,72,0.00,SCT,OVC,0.00,0.0,WeatherDisplay:10.37,2013-05-23 08:27:00,
2013-05-23 09:32:00,44.7,36.2,29.99,WSW,239,3.5,3.5,72,0.00,SCT,OVC,0.00,0.0,WeatherDisplay:10.37,2013-05-23 08:32:00,
2013-05-23 09:37:00,45.4,36.2,29.99,NNW,332,3.5,3.5,70,0.00,SCT,OVC,0.00,0.0,WeatherDisplay:10.37,2013-05-23 08:37:00,
2013-05-23 09:42:00,45.8,35.8,29.99,WSW,253,3.5,3.5,68,0.00,SCT,OVC,0.00,0.0,WeatherDisplay:10.37,2013-05-23 08:42:00,
2013-05-23 09:47:00,45.7,35.4,29.98,NW,316,8.1,8.1,67,0.00,SCT,OVC,0.00,0.0,WeatherDisplay:10.37,2013-05-23 08:47:00,
2013-05-23 09:52:00,46.0,36.0,29.98,NW,321,2.3,2.3,68,0.00,SCT,OVC,0.00,0.0,WeatherDisplay:10.37,2013-05-23 08:52:00,
2013-05-23 09:57:00,46.5,36.5,29.98,NW,317,6.9,6.9,68,0.00,SCT,OVC,0.00,0.0,WeatherDisplay:10.37,2013-05-23 08:57:00,
2013-05-23 10:02:00,46.1,35.4,29.98,NW,319,4.6,4.6,66,0.00,SCT,OVC,0.00,0.0,WeatherDisplay:10.37,2013-05-23 09:02:00,
2013-05-23 10:07:00,46.2,36.2,29.98,NW,321,2.3,2.3,68,0.00,SCT,OVC,0.00,0.0,WeatherDisplay:10.37,2013-05-23 09:07:00,
2013-05-23 10:12:00,46.4,36.4,29.98,NNW,335,7.0,7.0,68,0.00,SCT,OVC,0.00,0.0,WeatherDisplay:10.37,2013-05-23 09:12:00,
2013-05-23 10:17:00,46.2,36.2,29.98,NW,317,6.9,6.9,68,0.00,SCT,OVC,0.00,0.0,WeatherDisplay:10.37,2013-05-23 09:17:00,
2013-05-23 10:22:00,45.9,35.9,29.98,NW,311,5.0,5.0,68,0.00,SCT,OVC,0.00,0.0,WeatherDisplay:10.37,2013-05-23 09:22:00,
2013-05-23 10:27:00,46.3,36.7,29.98,WNW,303,5.8,5.8,69,0.00,SCT,OVC,0.00,0.0,WeatherDisplay:10.37,2013-05-23 09:27:00,
2013-05-23 10:32:00,46.3,37.0,29.98,NW,317,3.5,3.5,70,0.00,SCT,OVC,0.00,0.0,WeatherDisplay:10.37,2013-05-23 09:32:00,
2013-05-23 10:37:00,46.9,37.3,29.98,NNW,330,4.0,4.0,69,0.00,SCT,OVC,0.00,0.0,WeatherDisplay:10.37,2013-05-23 09:37:00,
2013-05-23 10:42:00,47.3,38.0,29.98,NW,321,3.5,3.5,70,0.00,SCT,OVC,0.00,0.0,WeatherDisplay:10.37,2013-05-23 09:42:00,
2013-05-23 10:47:00,47.7,36.9,29.98,NW,307,3.5,3.5,66,0.00,SCT,OVC,0.00,0.0,WeatherDisplay:10.37,2013-05-23 09:47:00,
2013-05-23 10:52:00,47.9,37.5,29.98,NW,319,3.5,3.5,67,0.00,SCT,OVC,0.00,0.0,WeatherDisplay:10.37,2013-05-23 09:52:00,
2013-05-23 10:57:00,47.6,37.2,29.98,NNW,330,4.0,4.0,67,0.00,SCT,OVC,0.00,0.0,WeatherDisplay:10.37,2013-05-23 09:57:00,
2013-05-23 11:02:00,47.7,36.9,29.97,NW,321,6.9,6.9,66,0.00,BKN,OVC,0.00,0.0,WeatherDisplay:10.37,2013-05-23 10:02:00,
2013-05-23 11:07:00,47.9,36.7,29.97,WNW,283,2.3,2.3,65,0.00,BKN,OVC,0.00,0.0,WeatherDisplay:10.37,2013-05-23 10:07:00,
2013-05-23 11:12:00,48.9,37.3,29.97,NNW,339,4.0,4.0,64,0.00,BKN,OVC,0.00,0.0,WeatherDisplay:10.37,2013-05-23 10:12:00,
2013-05-23 11:17:00,48.9,37.6,29.98,WSW,240,3.5,3.5,65,0.00,BKN,OVC,0.00,0.0,WeatherDisplay:10.37,2013-05-23 10:17:00,
2013-05-23 11:22:00,48.0,37.9,29.97,WNW,293,3.5,3.5,68,0.00,BKN,OVC,0.00,0.0,WeatherDisplay:10.37,2013-05-23 10:22:00,
2013-05-23 11:27:00,48.4,38.3,29.97,West,271,6.0,6.0,68,0.00,BKN,OVC,0.00,0.0,WeatherDisplay:10.37,2013-05-23 10:27:00,
2013-05-23 11:32:00,49.1,37.0,29.97,NW,318,3.5,3.5,63,0.00,SCT,OVC,0.00,0.0,WeatherDisplay:10.37,2013-05-23 10:32:00,
2013-05-23 11:37:00,48.7,35.0,29.97,West,274,4.6,4.6,59,0.00,SCT,OVC,0.00,0.0,WeatherDisplay:10.37,2013-05-23 10:37:00,
2013-05-23 11:43:00,49.0,36.1,29.97,WNW,295,3.5,3.5,61,0.00,SCT,OVC,0.00,0.0,WeatherDisplay:10.37,2013-05-23 10:43:00,
2013-05-23 11:48:00,49.7,36.8,29.97,NW,314,3.5,3.5,61,0.00,SCT,OVC,0.00,0.0,WeatherDisplay:10.37,2013-05-23 10:48:00,
2013-05-23 11:53:00,49.8,36.9,29.97,WNW,291,4.0,4.0,61,0.00,SCT,OVC,0.00,0.0,WeatherDisplay:10.37,2013-05-23 10:53:00,
2013-05-23 11:58:00,50.0,36.7,29.97,NW,324,4.6,4.6,60,0.00,SCT,OVC,0.00,0.0,WeatherDisplay:10.37,2013-05-23 10:58:00,
2013-05-23 12:03:00,50.2,36.0,29.97,WSW,245,4.0,4.0,58,0.00,BKN,OVC,0.00,0.0,WeatherDisplay:10.37,2013-05-23 11:03:00,
2013-05-23 12:08:00,50.8,36.5,29.97,NNW,338,4.0,4.0,58,0.00,BKN,OVC,0.00,0.0,WeatherDisplay:10.37,2013-05-23 11:08:00,
2013-05-23 12:13:00,51.4,36.2,29.96,SSW,200,4.6,4.6,56,0.00,BKN,OVC,0.00,0.0,WeatherDisplay:10.37,2013-05-23 11:13:00,
2013-05-23 12:18:00,51.7,36.5,29.97,North,5,4.6,4.6,56,0.00,BKN,OVC,0.00,0.0,WeatherDisplay:10.37,2013-05-23 11:18:00,
2013-05-23 12:23:00,51.7,35.6,29.96,NW,312,3.5,3.5,54,0.00,BKN,OVC,0.00,0.0,WeatherDisplay:10.37,2013-05-23 11:23:00,
2013-05-23 12:28:00,50.0,34.9,29.97,NW,312,5.8,5.8,56,0.00,BKN,OVC,0.00,0.0,WeatherDisplay:10.37,2013-05-23 11:28:00,
2013-05-23 12:33:00,50.1,35.4,29.96,NNW,340,3.5,3.5,57,0.00,SCT,OVC,0.00,0.0,WeatherDisplay:10.37,2013-05-23 11:33:00,
2013-05-23 12:38:00,50.8,36.1,29.97,NNW,333,5.0,5.0,57,0.00,SCT,OVC,0.00,0.0,WeatherDisplay:10.37,2013-05-23 11:38:00,
2013-05-23 12:43:00,51.1,36.8,29.96,NW,318,5.8,5.8,58,0.00,SCT,OVC,0.00,0.0,WeatherDisplay:10.37,2013-05-23 11:43:00,
2013-05-23 12:48:00,51.3,36.1,29.96,NNW,340,2.3,2.3,56,0.00,SCT,OVC,0.00,0.0,WeatherDisplay:10.37,2013-05-23 11:48:00,
2013-05-23 12:53:00,51.6,34.5,29.96,NNW,333,4.6,4.6,52,0.00,SCT,OVC,0.00,0.0,WeatherDisplay:10.37,2013-05-23 11:53:00,
2013-05-23 12:58:00,50.2,34.6,29.96,NNW,330,3.5,3.5,55,0.00,SCT,OVC,0.00,0.0,WeatherDisplay:10.37,2013-05-23 11:58:00,
2013-05-23 13:03:00,49.8,35.6,29.96,WNW,289,5.8,5.8,58,0.00,SCT,OVC,0.00,0.0,WeatherDisplay:10.37,2013-05-23 12:03:00,
2013-05-23 13:08:00,50.5,35.4,29.97,SW,214,3.5,3.5,56,0.00,SCT,OVC,0.00,0.0,WeatherDisplay:10.37,2013-05-23 12:08:00,
2013-05-23 13:13:00,50.7,34.6,29.96,NW,319,3.5,3.5,54,0.00,SCT,OVC,0.00,0.0,WeatherDisplay:10.37,2013-05-23 12:13:00,
2013-05-23 13:18:00,50.3,33.8,29.97,NW,324,3.5,3.5,53,0.00,SCT,OVC,0.00,0.0,WeatherDisplay:10.37,2013-05-23 12:18:00,
2013-05-23 13:23:00,49.9,33.0,29.96,NW,323,3.5,3.5,52,0.00,SCT,OVC,0.00,0.0,WeatherDisplay:10.37,2013-05-23 12:23:00,
2013-05-23 13:28:00,51.1,35.0,29.96,NW,321,3.5,3.5,54,0.00,SCT,OVC,0.00,0.0,WeatherDisplay:10.37,2013-05-23 12:28:00,
2013-05-23 13:33:00,51.9,33.3,29.95,WSW,257,6.9,6.9,49,0.00,BKN,OVC,0.00,0.0,WeatherDisplay:10.37,2013-05-23 12:33:00,
2013-05-23 13:38:00,51.4,33.9,29.95,NNW,330,5.8,5.8,51,0.00,BKN,OVC,0.00,0.0,WeatherDisplay:10.37,2013-05-23 12:38:00,
2013-05-23 13:43:00,50.6,33.1,29.96,NW,315,3.5,3.5,51,0.00,BKN,OVC,0.00,0.0,WeatherDisplay:10.37,2013-05-23 12:43:00,
2013-05-23 13:48:00,49.7,35.5,29.96,WNW,300,4.0,4.0,58,0.00,BKN,OVC,0.00,0.0,WeatherDisplay:10.37,2013-05-23 12:48:00,
2013-05-23 13:53:00,49.7,35.5,29.96,NW,311,4.6,4.6,58,0.00,BKN,OVC,0.00,0.0,WeatherDisplay:10.37,2013-05-23 12:53:00,
2013-05-23 13:58:00,49.1,35.4,29.96,West,267,4.6,4.6,59,0.00,BKN,OVC,0.00,0.0,WeatherDisplay:10.37,2013-05-23 12:58:00,
2013-05-23 14:03:00,47.7,34.5,29.96,NW,309,3.5,3.5,60,0.00,SCT,OVC,0.00,0.0,WeatherDisplay:10.37,2013-05-23 13:03:00,
2013-05-23 14:08:00,48.2,36.2,29.95,NW,321,8.1,8.1,63,0.00,SCT,OVC,0.00,0.0,WeatherDisplay:10.37,2013-05-23 13:08:00,
2013-05-23 14:13:00,49.5,35.8,29.95,NW,312,2.3,2.3,59,0.00,SCT,OVC,0.00,0.0,WeatherDisplay:10.37,2013-05-23 13:13:00,
2013-05-23 14:18:00,49.8,33.3,29.95,NNE,18,4.6,4.6,53,0.00,SCT,OVC,0.00,0.0,WeatherDisplay:10.37,2013-05-23 13:18:00,
2013-05-23 14:23:00,49.4,33.0,29.95,NNW,343,3.5,3.5,53,0.00,SCT,OVC,0.00,0.0,WeatherDisplay:10.37,2013-05-23 13:23:00,
2013-05-23 14:28:00,49.8,34.7,29.95,SW,236,3.5,3.5,56,0.00,SCT,OVC,0.00,0.0,WeatherDisplay:10.37,2013-05-23 13:28:00,
2013-05-23 14:33:00,50.3,32.8,29.94,NW,321,3.5,3.5,51,0.00,SCT,OVC,0.00,0.0,WeatherDisplay:10.37,2013-05-23 13:33:00,
2013-05-23 14:38:00,51.6,34.5,29.95,NNW,330,5.8,5.8,52,0.00,SCT,OVC,0.00,0.0,WeatherDisplay:10.37,2013-05-23 13:38:00,
2013-05-23 14:43:00,52.2,34.6,29.95,NW,321,3.5,3.5,51,0.00,SCT,OVC,0.00,0.0,WeatherDisplay:10.37,2013-05-23 13:43:00,
2013-05-23 14:48:00,51.3,33.8,29.94,NW,314,6.9,6.9,51,0.00,SCT,OVC,0.00,0.0,WeatherDisplay:10.37,2013-05-23 13:48:00,
2013-05-23 14:53:00,50.1,35.0,29.94,NNW,332,4.6,4.6,56,0.00,SCT,OVC,0.00,0.0,WeatherDisplay:10.37,2013-05-23 13:53:00,
2013-05-23 14:58:00,49.6,35.0,29.94,NW,321,3.5,3.5,57,0.00,SCT,OVC,0.00,0.0,WeatherDisplay:10.37,2013-05-23 13:58:00,
2013-05-23 15:03:00,49.2,33.7,29.94,NW,311,6.9,6.9,55,0.00,FEW,OVC,0.00,0.0,WeatherDisplay:10.37,2013-05-23 14:03:00,
2013-05-23 15:08:00,48.7,33.2,29.94,NW,304,8.1,8.1,55,0.00,FEW,OVC,0.00,0.0,WeatherDisplay:10.37,2013-05-23 14:08:00,
2013-05-23 15:13:00,48.7,33.2,29.94,NNW,333,4.6,4.6,55,0.00,FEW,OVC,0.00,0.0,WeatherDisplay:10.37,2013-05-23 14:13:00,
2013-05-23 15:18:00,49.4,33.9,29.94,NW,310,6.9,6.9,55,0.00,FEW,OVC,0.00,0.0,WeatherDisplay:10.37,2013-05-23 14:18:00,
2013-05-23 15:23:00,49.1,33.2,29.94,West,274,8.1,8.1,54,0.00,FEW,OVC,0.00,0.0,WeatherDisplay:10.37,2013-05-23 14:23:00,
2013-05-23 15:28:00,48.9,33.4,29.94,NW,326,3.5,3.5,55,0.00,FEW,OVC,0.00,0.0,WeatherDisplay:10.37,2013-05-23 14:28:00,
2013-05-23 15:33:00,48.8,34.2,29.95,NNW,328,3.5,3.5,57,0.00,SCT,OVC,0.00,0.0,WeatherDisplay:10.37,2013-05-23 14:33:00,
2013-05-23 15:38:00,48.4,32.5,29.95,North,359,6.9,6.9,54,0.00,SCT,OVC,0.00,0.0,WeatherDisplay:10.37,2013-05-23 14:38:00,
2013-05-23 15:43:00,48.1,33.1,29.95,WNW,298,3.5,3.5,56,0.00,SCT,OVC,0.00,0.0,WeatherDisplay:10.37,2013-05-23 14:43:00,
2013-05-23 15:48:00,48.0,33.9,29.95,North,357,2.3,2.3,58,0.00,SCT,OVC,0.00,0.0,WeatherDisplay:10.37,2013-05-23 14:48:00,
2013-05-23 15:53:00,48.1,34.0,29.95,NW,314,4.0,4.0,58,0.00,SCT,OVC,0.00,0.0,WeatherDisplay:10.37,2013-05-23 14:53:00,
2013-05-23 15:58:00,48.0,33.0,29.95,NNW,335,5.8,5.8,56,0.00,SCT,OVC,0.00,0.0,WeatherDisplay:10.37,2013-05-23 14:58:00,
2013-05-23 16:03:00,48.2,33.7,29.94,NW,323,3.5,3.5,57,0.00,SCT,OVC,0.00,0.0,WeatherDisplay:10.37,2013-05-23 15:03:00,
2013-05-23 16:08:00,48.3,33.3,29.94,WSW,246,4.6,4.6,56,0.00,SCT,OVC,0.00,0.0,WeatherDisplay:10.37,2013-05-23 15:08:00,
2013-05-23 16:13:00,48.1,34.9,29.95,NW,325,5.0,5.0,60,0.00,SCT,OVC,0.00,0.0,WeatherDisplay:10.37,2013-05-23 15:13:00,
2013-05-23 16:18:00,46.9,35.4,29.95,West,281,6.9,6.9,64,0.00,SCT,OVC,0.00,0.0,WeatherDisplay:10.37,2013-05-23 15:18:00,
2013-05-23 16:23:00,46.8,36.0,29.94,NNW,335,3.5,3.5,66,0.00,SCT,OVC,0.00,0.0,WeatherDisplay:10.37,2013-05-23 15:23:00,
2013-05-23 16:28:00,47.9,36.7,29.94,WSW,252,3.5,3.5,65,0.00,SCT,OVC,0.00,0.0,WeatherDisplay:10.37,2013-05-23 15:28:00,
2013-05-23 16:33:00,48.9,36.9,29.94,NNW,328,2.3,2.3,63,0.00,SCT,OVC,0.00,0.0,WeatherDisplay:10.37,2013-05-23 15:33:00,
2013-05-23 16:38:00,49.2,35.5,29.93,NE,39,4.0,4.0,59,0.00,SCT,OVC,0.00,0.0,WeatherDisplay:10.37,2013-05-23 15:38:00,
2013-05-23 16:43:00,48.9,33.9,29.93,NNW,345,3.5,3.5,56,0.00,SCT,OVC,0.00,0.0,WeatherDisplay:10.37,2013-05-23 15:43:00,
2013-05-23 16:48:00,48.8,34.2,29.94,SSW,211,3.5,3.5,57,0.00,BKN,OVC,0.00,0.0,WeatherDisplay:10.37,2013-05-23 15:48:00,
2013-05-23 16:53:00,49.0,34.4,29.94,SE,139,1.2,1.2,57,0.00,BKN,OVC,0.00,0.0,WeatherDisplay:10.37,2013-05-23 15:53:00,
2013-05-23 16:59:00,49.3,33.8,29.94,NW,326,2.3,2.3,55,0.00,BKN,OVC,0.00,0.0,WeatherDisplay:10.37,2013-05-23 15:59:00,
2013-05-23 17:04:00,50.6,35.0,29.93,SE,131,3.5,3.5,55,0.00,SCT,OVC,0.00,0.0,WeatherDisplay:10.37,2013-05-23 16:04:00,
2013-05-23 17:09:00,51.1,34.1,29.93,WSW,257,3.5,3.5,52,0.00,SCT,OVC,0.00,0.0,WeatherDisplay:10.37,2013-05-23 16:09:00,
2013-05-23 17:14:00,52.0,36.3,29.93,WNW,297,1.2,1.2,55,0.00,SCT,OVC,0.00,0.0,WeatherDisplay:10.37,2013-05-23 16:14:00,
2013-05-23 17:19:00,52.4,33.3,29.93,NNE,16,3.5,3.5,48,0.00,SCT,OVC,0.00,0.0,WeatherDisplay:10.37,2013-05-23 16:19:00,
2013-05-23 17:24:00,51.4,32.9,29.93,WSW,239,3.5,3.5,49,0.00,SCT,OVC,0.00,0.0,WeatherDisplay:10.37,2013-05-23 16:24:00,
2013-05-23 17:29:00,50.6,32.6,29.93,SW,215,3.0,3.0,50,0.00,SCT,OVC,0.00,0.0,WeatherDisplay:10.37,2013-05-23 16:29:00,
2013-05-23 17:34:00,49.9,32.5,29.93,WNW,286,4.6,4.6,51,0.00,BKN,OVC,0.00,0.0,WeatherDisplay:10.37,2013-05-23 16:34:00,
2013-05-23 17:39:00,49.5,32.6,29.93,West,274,4.6,4.6,52,0.00,BKN,OVC,0.00,0.0,WeatherDisplay:10.37,2013-05-23 16:39:00,
2013-05-23 17:44:00,49.3,32.4,29.93,NW,314,3.5,3.5,52,0.00,BKN,OVC,0.00,0.0,WeatherDisplay:10.37,2013-05-23 16:44:00,
2013-05-23 17:49:00,49.2,33.7,29.93,SW,231,2.3,2.3,55,0.00,BKN,OVC,0.00,0.0,WeatherDisplay:10.37,2013-05-23 16:49:00,
2013-05-23 17:54:00,49.1,32.7,29.93,West,259,2.3,2.3,53,0.00,BKN,OVC,0.00,0.0,WeatherDisplay:10.37,2013-05-23 16:54:00,
2013-05-23 17:59:00,49.1,33.2,29.93,WNW,287,2.3,2.3,54,0.00,BKN,OVC,0.00,0.0,WeatherDisplay:10.37,2013-05-23 16:59:00,
2013-05-23 18:04:00,49.1,33.6,29.93,NW,314,2.3,2.3,55,0.00,BKN,OVC,0.00,0.0,WeatherDisplay:10.37,2013-05-23 17:04:00,
2013-05-23 18:09:00,48.9,33.9,29.93,NNW,347,3.5,3.5,56,0.00,BKN,OVC,0.00,0.0,WeatherDisplay:10.37,2013-05-23 17:09:00,
2013-05-23 18:14:00,48.7,33.2,29.93,NNW,345,3.5,3.5,55,0.00,BKN,OVC,0.00,0.0,WeatherDisplay:10.37,2013-05-23 17:14:00,
2013-05-23 18:19:00,48.8,33.8,29.93,NW,315,2.3,2.3,56,0.00,BKN,OVC,0.00,0.0,WeatherDisplay:10.37,2013-05-23 17:19:00,
2013-05-23 18:24:00,48.7,33.7,29.93,NNW,329,3.5,3.5,56,0.00,BKN,OVC,0.00,0.0,WeatherDisplay:10.37,2013-05-23 17:24:00,
2013-05-23 18:29:00,48.5,33.9,29.93,NNW,334,3.5,3.5,57,0.00,BKN,OVC,0.00,0.0,WeatherDisplay:10.37,2013-05-23 17:29:00,
2013-05-23 18:34:00,48.2,33.7,29.93,NW,321,3.5,3.5,57,0.00,SCT,OVC,0.00,0.0,WeatherDisplay:10.37,2013-05-23 17:34:00,
2013-05-23 18:39:00,47.9,33.8,29.93,NNW,342,2.3,2.3,58,0.00,SCT,OVC,0.00,0.0,WeatherDisplay:10.37,2013-05-23 17:39:00,
2013-05-23 18:44:00,47.5,33.9,29.93,NNW,335,4.6,4.6,59,0.00,SCT,OVC,0.00,0.0,WeatherDisplay:10.37,2013-05-23 17:44:00,
2013-05-23 18:49:00,47.5,34.3,29.93,WNW,300,2.3,2.3,60,0.00,SCT,OVC,0.00,0.0,WeatherDisplay:10.37,2013-05-23 17:49:00,
2013-05-23 18:54:00,48.0,33.9,29.93,WNW,297,3.5,3.5,58,0.00,SCT,OVC,0.00,0.0,WeatherDisplay:10.37,2013-05-23 17:54:00,
2013-05-23 18:59:00,48.5,33.9,29.93,SW,236,3.0,3.0,57,0.00,SCT,OVC,0.00,0.0,WeatherDisplay:10.37,2013-05-23 17:59:00,
2013-05-23 19:04:00,48.8,34.2,29.93,NW,323,1.2,1.2,57,0.00,SCT,OVC,0.00,0.0,WeatherDisplay:10.37,2013-05-23 18:04:00,
2013-05-23 19:09:00,48.7,34.1,29.93,West,281,2.3,2.3,57,0.00,SCT,OVC,0.00,0.0,WeatherDisplay:10.37,2013-05-23 18:09:00,
2013-05-23 19:14:00,48.1,34.0,29.93,NNW,328,3.5,3.5,58,0.00,SCT,OVC,0.00,0.0,WeatherDisplay:10.37,2013-05-23 18:14:00,
2013-05-23 19:19:00,47.4,33.4,29.93,NNW,333,4.0,4.0,58,0.00,SCT,OVC,0.00,0.0,WeatherDisplay:10.37,2013-05-23 18:19:00,
2013-05-23 19:24:00,47.0,33.4,29.93,NW,312,2.0,2.0,59,0.00,SCT,OVC,0.00,0.0,WeatherDisplay:10.37,2013-05-23 18:24:00,
2013-05-23 19:29:00,46.9,33.7,29.93,NNW,344,3.5,3.5,60,0.00,SCT,OVC,0.00,0.0,WeatherDisplay:10.37,2013-05-23 18:29:00,
2013-05-23 19:34:00,46.9,33.7,29.93,NNW,333,5.8,5.8,60,0.00,SCT,OVC,0.00,0.0,WeatherDisplay:10.37,2013-05-23 18:34:00,
2013-05-23 19:39:00,46.9,33.7,29.93,WNW,300,1.2,1.2,60,0.00,SCT,OVC,0.00,0.0,WeatherDisplay:10.37,2013-05-23 18:39:00,
2013-05-23 19:44:00,46.9,33.7,29.93,WNW,300,1.2,1.2,60,0.00,SCT,OVC,0.00,0.0,WeatherDisplay:10.37,2013-05-23 18:44:00,
2013-05-23 19:49:00,46.7,33.5,29.93,NW,323,1.2,1.2,60,0.00,BKN,OVC,0.00,0.0,WeatherDisplay:10.37,2013-05-23 18:49:00,
2013-05-23 19:54:00,46.7,34.0,29.93,WNW,302,2.0,2.0,61,0.00,BKN,OVC,0.00,0.0,WeatherDisplay:10.37,2013-05-23 18:54:00,
2013-05-23 19:59:00,46.6,33.9,29.93,NNW,335,3.5,3.5,61,0.00,BKN,OVC,0.00,0.0,WeatherDisplay:10.37,2013-05-23 18:59:00,
2013-05-23 20:04:00,46.5,33.4,29.93,NW,326,2.3,2.3,60,0.00,BKN,OVC,0.00,0.0,WeatherDisplay:10.37,2013-05-23 19:04:00,
2013-05-23 20:09:00,46.4,33.7,29.93,NW,326,2.3,2.3,61,0.00,BKN,OVC,0.00,0.0,WeatherDisplay:10.37,2013-05-23 19:09:00,
2013-05-23 20:14:00,46.2,33.5,29.93,NW,318,1.2,1.2,61,0.00,BKN,OVC,0.00,0.0,WeatherDisplay:10.37,2013-05-23 19:14:00,
2013-05-23 20:19:00,46.2,33.5,29.93,NW,311,2.3,2.3,61,0.00,BKN,OVC,0.00,0.0,WeatherDisplay:10.37,2013-05-23 19:19:00,
2013-05-23 20:24:00,46.3,33.2,29.93,NW,325,4.6,4.6,60,0.00,BKN,OVC,0.00,0.0,WeatherDisplay:10.37,2013-05-23 19:24:00,
2013-05-23 20:29:00,46.2,32.7,29.93,NW,316,5.8,5.8,59,0.00,BKN,OVC,0.00,0.0,WeatherDisplay:10.37,2013-05-23 19:29:00,
2013-05-23 20:34:00,46.1,33.0,29.92,SE,139,3.5,3.5,60,0.00,BKN,OVC,0.00,0.0,WeatherDisplay:10.37,2013-05-23 19:34:00,
2013-05-23 20:39:00,45.9,33.2,29.93,WNW,288,3.5,3.5,61,0.00,BKN,OVC,0.00,0.0,WeatherDisplay:10.37,2013-05-23 19:39:00,
2013-05-23 20:44:00,45.9,33.2,29.92,WNW,302,3.5,3.5,61,0.00,BKN,OVC,0.00,0.0,WeatherDisplay:10.37,2013-05-23 19:44:00,
2013-05-23 20:49:00,45.9,33.2,29.93,South,179,0.0,0.1,61,0.00,BKN,OVC,0.00,0.0,WeatherDisplay:10.37,2013-05-23 19:49:00,
2013-05-23 20:54:00,46.0,32.9,29.93,SSE,158,2.0,2.0,60,0.00,BKN,OVC,0.00,0.0,WeatherDisplay:10.37,2013-05-23 19:54:00,
2013-05-23 20:59:00,45.7,33.0,29.93,WNW,283,10.4,10.4,61,0.00,BKN,OVC,0.00,0.0,WeatherDisplay:10.37,2013-05-23 19:59:00,
2013-05-23 21:04:00,45.5,33.2,29.92,NW,323,3.5,3.5,62,0.00,BKN,OVC,0.00,0.0,WeatherDisplay:10.37,2013-05-23 20:04:00,
2013-05-23 21:09:00,45.5,33.2,29.93,NW,321,2.3,2.3,62,0.00,BKN,OVC,0.00,0.0,WeatherDisplay:10.37,2013-05-23 20:09:00,
2013-05-23 21:14:00,45.3,33.4,29.93,South,179,5.0,5.0,63,0.00,BKN,OVC,0.00,0.0,WeatherDisplay:10.37,2013-05-23 20:14:00,
2013-05-23 21:19:00,45.2,33.3,29.92,ESE,103,3.5,0.0,63,0.00,BKN,OVC,0.00,0.0,WeatherDisplay:10.37,2013-05-23 20:19:00,
2013-05-23 21:24:00,45.2,33.3,29.92,NNW,342,3.5,3.5,63,0.00,BKN,OVC,0.00,0.0,WeatherDisplay:10.37,2013-05-23 20:24:00,
2013-05-23 21:29:00,45.1,33.2,29.92,NNW,328,4.0,4.0,63,0.00,BKN,OVC,0.00,0.0,WeatherDisplay:10.37,2013-05-23 20:29:00,
2013-05-23 21:35:00,45.0,33.2,29.91,East,96,4.6,4.6,63,0.00,BKN,OVC,0.00,0.0,WeatherDisplay:10.37,2013-05-23 20:35:00,
2013-05-23 21:40:00,44.9,33.1,29.91,North,357,2.3,2.3,63,0.00,BKN,OVC,0.00,0.0,WeatherDisplay:10.37,2013-05-23 20:40:00,
2013-05-23 21:45:00,44.8,32.6,29.91,West,278,3.5,3.5,62,0.00,BKN,OVC,0.00,0.0,WeatherDisplay:10.37,2013-05-23 20:45:00,
2013-05-23 21:50:00,44.8,33.0,29.91,North,349,4.6,4.6,63,0.00,BKN,OVC,0.00,0.0,WeatherDisplay:10.37,2013-05-23 20:50:00,
2013-05-23 21:55:00,44.7,32.9,29.91,North,350,3.5,3.5,63,0.00,BKN,OVC,0.00,0.0,WeatherDisplay:10.37,2013-05-23 20:55:00,
2013-05-23 22:00:00,44.6,32.8,29.92,NW,326,2.3,2.3,63,0.00,BKN,OVC,0.00,0.0,WeatherDisplay:10.37,2013-05-23 21:00:00,
2013-05-23 22:05:00,44.5,33.1,29.93,NW,305,3.5,3.5,64,0.00,BKN,OVC,0.00,0.0,WeatherDisplay:10.37,2013-05-23 21:05:00,
2013-05-23 22:10:00,44.5,33.1,29.93,NNW,346,2.3,2.3,64,0.00,BKN,OVC,0.00,0.0,WeatherDisplay:10.37,2013-05-23 21:10:00,
2013-05-23 22:15:00,44.5,32.7,29.93,WNW,292,3.5,3.5,63,0.00,BKN,OVC,0.00,0.0,WeatherDisplay:10.37,2013-05-23 21:15:00,
2013-05-23 22:20:00,44.5,32.7,29.93,ENE,57,2.3,2.3,63,0.00,BKN,OVC,0.00,0.0,WeatherDisplay:10.37,2013-05-23 21:20:00,
2013-05-23 22:25:00,44.4,32.6,29.93,NW,319,2.3,2.3,63,0.00,BKN,OVC,0.00,0.0,WeatherDisplay:10.37,2013-05-23 21:25:00,
2013-05-23 22:30:00,44.4,33.0,29.94,West,278,1.2,1.2,64,0.00,BKN,OVC,0.00,0.0,WeatherDisplay:10.37,2013-05-23 21:30:00,
2013-05-23 22:35:00,44.4,32.6,29.94,NNW,332,3.5,3.5,63,0.00,SCT,OVC,0.00,0.0,WeatherDisplay:10.37,2013-05-23 21:35:00,
2013-05-23 22:40:00,44.5,32.7,29.94,WNW,285,3.5,3.5,63,0.00,SCT,OVC,0.00,0.0,WeatherDisplay:10.37,2013-05-23 21:40:00,
2013-05-23 22:45:00,44.4,32.6,29.94,NNW,339,3.5,3.5,63,0.00,SCT,OVC,0.00,0.0,WeatherDisplay:10.37,2013-05-23 21:45:00,
2013-05-23 22:50:00,44.4,32.6,29.94,West,269,1.0,7.0,63,0.00,SCT,OVC,0.00,0.0,WeatherDisplay:10.37,2013-05-23 21:50:00,
2013-05-23 22:55:00,44.4,33.0,29.94,West,264,0.0,0.0,64,0.00,SCT,OVC,0.00,0.0,WeatherDisplay:10.37,2013-05-23 21:55:00,
2013-05-23 23:00:00,44.3,32.9,29.94,SW,235,1.2,1.2,64,0.00,SCT,OVC,0.00,0.0,WeatherDisplay:10.37,2013-05-23 22:00:00,
2013-05-23 23:05:00,44.2,32.8,29.94,SW,236,2.3,2.3,64,0.00,BKN,OVC,0.00,0.0,WeatherDisplay:10.37,2013-05-23 22:05:00,
2013-05-23 23:10:00,44.1,32.7,29.94,NW,321,2.3,2.3,64,0.00,BKN,OVC,0.00,0.0,WeatherDisplay:10.37,2013-05-23 22:10:00,
2013-05-23 23:15:00,44.1,32.3,29.94,NW,325,2.3,2.3,63,0.00,BKN,OVC,0.00,0.0,WeatherDisplay:10.37,2013-05-23 22:15:00,
2013-05-23 23:20:00,44.2,32.8,29.94,SSW,203,2.3,2.3,64,0.00,BKN,OVC,0.00,0.0,WeatherDisplay:10.37,2013-05-23 22:20:00,
2013-05-23 23:25:00,44.2,32.8,29.94,West,276,3.5,3.5,64,0.00,BKN,OVC,0.00,0.0,WeatherDisplay:10.37,2013-05-23 22:25:00,
2013-05-23 23:30:00,44.2,32.8,29.93,NNW,335,3.5,3.5,64,0.00,BKN,OVC,0.00,0.0,WeatherDisplay:10.37,2013-05-23 22:30:00,
2013-05-23 23:35:00,44.1,32.7,29.93,WNW,289,3.5,3.5,64,0.00,FEW,OVC,0.00,0.0,WeatherDisplay:10.37,2013-05-23 22:35:00,
2013-05-23 23:40:00,44.2,32.8,29.92,North,350,12.7,12.7,64,0.00,FEW,OVC,0.00,0.0,WeatherDisplay:10.37,2013-05-23 22:40:00,
2013-05-23 23:45:00,44.2,32.8,29.92,West,263,3.5,3.5,64,0.00,FEW,OVC,0.00,0.0,WeatherDisplay:10.37,2013-05-23 22:45:00,
2013-05-23 23:50:00,44.1,32.7,29.91,NW,312,2.3,2.3,64,0.00,FEW,OVC,0.00,0.0,WeatherDisplay:10.37,2013-05-23 22:50:00,
2013-05-23 23:55:00,44.1,32.7,29.91,NW,314,3.5,3.5,64,0.00,FEW,OVC,0.00,0.0,WeatherDisplay:10.37,2013-05-23 22:55:00,